Location: Lachaise
(45.8833°N, 1.8500°E)
Time: 20:04:31
(UTC+00:00)

Cosmos 1959 Rocket - Pass Details

Date: 07 June 2020
Orbit: 948 x 997 km, 83.0° (Epoch: 09 July)

Event Time Altitude Azimuth Distance (km) Brightness Sun altitude
Exits shadow 03:00:21 - 190° (S) 3,115 6.6 -9.1°
Reaches altitude 10° 03:01:30 10° 191° (S) 2,680 6.3 -8.9°
Maximum altitude 03:07:38 81° 278° (W) 968 4.5 -8.2°
Drops below altitude 10° 03:13:46 10° 7° (N) 2,682 7.6 -7.4°
Sets 03:16:16 0° 8° (N) 3,630 8.4 -7.1°
